H1 CPF 2 NER 2023 10 22 9 295 01 glonass140 H2 1903001 9140 44299 2023 10 22 0 0 0 2023 10 25 23 45 0 900 1 1 0 0 0 1 H9 10 0 60239 0.00000 0 -23670175.534 -8506414.442 4223762.289 10 0 60239 900.00000 0 -23009352.910 -8217246.742 7327596.500 10 0 60239 1800.00000 0 -21961115.970 -7915910.201 10289077.177 10 0 60239 2700.00000 0 -20543503.721 -7656775.322 13050756.322 10 0 60239 3600.00000 0 -18787022.848 -7490378.466 15559113.995 10 0 60239 4500.00000 0 -16733515.910 -7461092.500 17765588.600 10 0 60239 5400.00000 0 -14434572.685 -7605071.155 19627507.329 10 0 60239 6300.00000 0 -11949551.393 -7948553.242 21108899.826 10 0 60239 7200.00000 0 -9343292.355 -8506597.469 22181180.593 10 0 60239 8100.00000 0 -6683618.793 -9282300.337 22823688.393 10 0 60239 9000.00000 0 -4038727.746 -10266529.436 23024073.655 10 0 60239 9900.00000 0 -1474578.104 -11438183.050 22778527.585 10 0 60239 10800.00000 0 947617.511 -12764965.298 22091849.538 10 0 60239 11700.00000 0 3173694.911 -14204644.939 20977351.841 10 0 60239 12600.00000 0 5158540.920 -15706746.034 19456604.032 10 0 60239 13500.00000 0 6867715.098 -17214601.017 17559021.094 10 0 60239 14400.00000 0 8278624.879 -18667681.668 15321302.903 10 0 60239 15300.00000 0 9381206.517 -20004111.870 12786734.735 10 0 60239 16200.00000 0 10178084.430 -21163258.176 10004361.131 10 0 60239 17100.00000 0 10684202.981 -22088290.711 7028047.894 10 0 60239 18000.00000 0 10925946.380 -22728607.574 3915449.216 10 0 60239 18900.00000 0 10939783.708 -23042021.147 726899.011 10 0 60239 19800.00000 0 10770495.908 -22996613.918 -2475752.860 10 0 60239 20700.00000 0 10469059.336 -22572185.060 -5630337.221 10 0 60239 21600.00000 0 10090275.052 -21761225.870 -8675571.940 10 0 60239 22500.00000 0 9690243.999 -20569381.300 -11552254.497 10 0 60239 23400.00000 0 9323795.037 -19015376.474 -14204417.147 10 0 60239 24300.00000 0 9041975.103 -17130409.523 -16580421.684 10 0 60239 25200.00000 0 8889708.392 -14957034.467 -18633971.958 10 0 60239 26100.00000 0 8903724.526 -12547579.455 -20325023.707 10 0 60239 27000.00000 0 9110844.469 -9962165.323 -21620573.433 10 0 60239 27900.00000 0 9526697.899 -7266406.331 -22495310.328 10 0 60239 28800.00000 0 10154927.572 -4528888.494 -22932117.995 10 0 60239 29700.00000 0 10986915.570 -1818530.361 -22922415.686 10 0 60239 30600.00000 0 12002044.234 798063.888 -22466331.935 10 0 60239 31500.00000 0 13168481.794 3259148.636 -21572706.753 10 0 60239 32400.00000 0 14444460.398 5510172.272 -20258921.985 10 0 60239 33300.00000 0 15779993.163 7505806.526 -18550562.842 10 0 60239 34200.00000 0 17118958.019 9211585.213 -16480917.056 10 0 60239 35100.00000 0 18401460.384 10605084.442 -14090321.439 10 0 60239 36000.00000 0 19566374.578 11676595.773 -11425368.825 10 0 60239 36900.00000 0 20553956.165 12429265.309 -8537991.327 10 0 60239 37800.00000 0 21308414.248 12878694.541 -5484438.513 10 0 60239 38700.00000 0 21780334.442 13052021.587 -2324171.291 10 0 60239 39600.00000 0 21928849.656 12986523.645 881305.843 10 0 60239 40500.00000 0 21723466.686 12727801.771 4069650.370 10 0 60239 41400.00000 0 21145471.445 12327626.655 7178900.682 10 0 60239 42300.00000 0 20188853.755 11841538.243 10148683.744 10 0 60239 43200.00000 0 18860713.156 11326302.070 12921387.557 10 0 60239 44100.00000 0 17181129.225 10837330.723 15443275.441 10 0 60239 45000.00000 0 15182502.437 10426179.794 17665520.775 10 0 60239 45900.00000 0 12908393.723 10138223.918 19545142.808 10 0 60239 46800.00000 0 10411911.520 10010610.377 21045826.455 10 0 60239 47700.00000 0 7753713.622 10070575.637 22138611.485 10 0 60239 48600.00000 0 4999706.624 10334194.698 22802439.210 10 0 60239 49500.00000 0 2218537.757 10805614.839 23024547.515 10 0 60239 50400.00000 0 -521017.975 11476805.225 22800707.837 10 0 60239 51300.00000 0 -3152668.578 12327832.423 22135300.472 10 0 60239 52200.00000 0 -5615107.349 13327650.320 21041227.306 10 0 60239 53100.00000 0 -7854304.815 14435371.728 19539663.782 10 0 60239 54000.00000 0 -9825497.142 15601969.247 17659654.572 10 0 60239 54900.00000 0 -11494790.179 16772335.217 15437560.055 10 0 60239 55800.00000 0 -12840313.819 17887615.611 12916363.286 10 0 60239 56700.00000 0 -13852879.767 18887721.256 10144849.687 10 0 60239 57600.00000 0 -14536116.003 19713912.052 7176674.069 10 0 60239 58500.00000 0 -14906072.651 20311346.311 4069331.919 10 0 60239 59400.00000 0 -14990315.937 20631488.368 883053.873 10 0 60239 60300.00000 0 -14826548.134 20634272.941 -2320355.922 10 0 60239 61200.00000 0 -14460811.419 20289934.487 -5478715.408 10 0 60239 62100.00000 0 -13945351.108 19580423.404 -8530671.103 10 0 60239 63000.00000 0 -13336228.305 18500347.938 -11416891.908 10 0 60239 63900.00000 0 -12690782.804 17057400.382 -14081226.603 10 0 60239 64800.00000 0 -12065053.667 15272247.586 -16471802.076 10 0 60239 65700.00000 0 -11511266.964 13177888.479 -18542040.278 10 0 60239 66600.00000 0 -11075497.482 10818503.656 -20251573.483 10 0 60239 67500.00000 0 -10795604.077 8247843.580 -21567039.389 10 0 60239 68400.00000 0 -10699526.779 5527221.434 -22462740.015 10 0 60239 69300.00000 0 -10804018.640 2723193.472 -22921150.963 10 0 60239 70200.00000 0 -11113866.812 -94977.018 -22933270.619 10 0 60239 71100.00000 0 -11621636.697 -2857966.833 -22498802.029 10 0 60239 72000.00000 0 -12307950.747 -5499040.830 -21626163.452 10 0 60239 72900.00000 0 -13142290.720 -7956590.478 -20332327.026 10 0 60239 73800.00000 0 -14084289.917 -10176457.137 -18642488.395 10 0 60239 74700.00000 0 -15085460.884 -12113943.252 -16589573.591 10 0 60239 75600.00000 0 -16091285.409 -13735427.704 -14213592.789 10 0 60239 76500.00000 0 -17043578.090 -15019518.441 -11560853.741 10 0 60239 77400.00000 0 -17883022.864 -15957694.932 -8683050.715 10 0 60239 78300.00000 0 -18551774.474 -16554414.883 -5636247.374 10 0 60239 79200.00000 0 -18996014.050 -16826682.333 -2479774.299 10 0 60239 80100.00000 0 -19168349.949 -16803097.212 724936.256 10 0 60239 81000.00000 0 -19029961.754 -16522428.521 3915554.646 10 0 60239 81900.00000 0 -18552396.484 -16031773.343 7030072.654 10 0 60239 82800.00000 0 -17718941.030 -15384381.325 10008012.285 10 0 60239 83700.00000 0 -16525513.108 -14637238.105 12791600.468 10 0 60239 84600.00000 0 -14981033.490 -13848510.852 15326886.692 10 0 60239 85500.00000 0 -13107264.316 -13074964.374 17564782.111 10 0 60240 0.00000 0 -10938120.809 -12369456.940 19462000.449 10 0 60240 900.00000 0 -8518484.237 -11778620.506 20981884.494 10 0 60240 1800.00000 0 -5902568.593 -11340823.116 22095100.967 10 0 60240 2700.00000 0 -3151904.849 -11084496.756 22780195.151 10 0 60240 3600.00000 0 -333028.639 -11026900.620 23023993.357 10 0 60240 4500.00000 0 2485034.826 -11173370.175 22821847.762 10 0 60240 5400.00000 0 5233385.595 -11517082.627 22177719.681 10 0 60240 6300.00000 0 7845856.947 -12039348.060 21104100.242 10 0 60240 7200.00000 0 10261510.200 -12710413.908 19621770.101 10 0 60240 8100.00000 0 12426914.805 -13490749.293 17759402.592 10 0 60240 9000.00000 0 14298120.833 -14332756.045 15553017.223 10 0 60240 9900.00000 0 15842243.330 -15182835.526 13045293.132 10 0 60240 10800.00000 0 17038593.787 -15983725.509 10284754.596 10 0 60240 11700.00000 0 17879312.285 -16677009.865 7324843.085 10 0 60240 12600.00000 0 18369474.471 -17205696.421 4222892.733 10 0 60240 13500.00000 0 18526668.854 -17516754.802 1039028.051 10 0 60240 14400.00000 0 18380062.026 -17563507.296 -2164995.528 10 0 60240 15300.00000 0 17968990.926 -17307771.635 -5326986.136 10 0 60240 16200.00000 0 17341141.032 -16721664.368 -8385521.974 10 0 60240 17100.00000 0 16550386.947 -15788987.443 -11281146.271 10 0 60240 18000.00000 0 15654386.279 -14506137.749 -13957527.094 10 0 60240 18900.00000 0 14712028.364 -12882499.347 -16362558.961 10 0 60240 19800.00000 0 13780845.706 -10940299.748 -18449384.224 10 0 60240 20700.00000 0 12914497.799 -8713934.175 -20177313.692 10 0 60240 21600.00000 0 12160434.100 -6248784.178 -21512627.945 10 0 60240 22500.00000 0 11557835.392 -3599578.315 -22429243.145 10 0 60240 23400.00000 0 11135921.155 -828362.063 -22909227.817 10 0 60240 24300.00000 0 10912695.026 1997839.322 -22943160.000 10 0 60240 25200.00000 0 10894181.920 4809568.213 -22530317.373 10 0 60240 26100.00000 0 11074189.496 7537586.432 -21678696.170 10 0 60240 27000.00000 0 11434604.362 10115521.098 -20404858.180 10 0 60240 27900.00000 0 11946210.633 12482394.223 -18733608.490 10 0 60240 28800.00000 0 12569996.142 14584930.468 -16697510.101 10 0 60240 29700.00000 0 13258890.709 16379546.796 -14336244.879 10 0 60240 30600.00000 0 13959862.379 17833941.144 -11695833.497 10 0 60240 31500.00000 0 14616282.104 18928214.150 -8827730.049 10 0 60240 32400.00000 0 15170455.859 19655477.881 -5787809.659 10 0 60240 33300.00000 0 15566215.996 20021927.291 -2635269.698 10 0 60240 34200.00000 0 15751461.149 20046373.038 568532.903 10 0 60240 35100.00000 0 15680536.373 19759257.202 3761284.533 10 0 60240 36000.00000 0 15316352.205 19201195.369 6880933.539 10 0 60240 36900.00000 0 14632152.694 18421108.450 9866900.020 10 0 60240 37800.00000 0 13612857.639 17474024.767 12661252.710 10 0 60240 38700.00000 0 12255922.549 16418646.428 15209829.906 10 0 60240 39600.00000 0 10571680.369 15314783.422 17463282.874 10 0 60240 40500.00000 0 8583150.855 14220763.870 19378022.138 10 0 60240 41400.00000 0 6325325.768 13190929.137 20917049.344 10 0 60240 42300.00000 0 3843959.702 12273318.382 22050659.822 10 0 60240 43200.00000 0 1193916.679 11507638.650 22757003.705 10 0 60240 44100.00000 0 -1562859.406 10923604.271 23022496.169 10 0 60240 45000.00000 0 -4359667.150 10539713.744 22842070.095 10 0 60240 45900.00000 0 -7127567.840 10362513.964 22219267.293 10 0 60240 46800.00000 0 -9798000.636 10386381.566 21166167.098 10 0 60240 47700.00000 0 -12305386.080 10593829.764 19703153.868 10 0 60240 48600.00000 0 -14589611.811 10956327.575 17858527.642 10 0 60240 49500.00000 0 -16598299.075 11435597.173 15667964.732 10 0 60240 50400.00000 0 -18288757.320 11985335.425 13173837.760 10 0 60240 51300.00000 0 -19629546.729 12553288.004 10424407.086 10 0 60240 52200.00000 0 -20601584.478 13083589.721 7472898.026 10 0 60240 53100.00000 0 -21198748.852 13519273.301 4376480.583 10 0 60240 54000.00000 0 -21427956.044 13804841.382 1195170.433 10 0 60240 54900.00000 0 -21308706.288 13888793.548 -2009328.273 10 0 60240 55800.00000 0 -20872117.885 13726001.393 -5174816.274 10 0 60240 56700.00000 0 -20159489.346 13279830.719 -8239805.731 10 0 60240 57600.00000 0 -19220449.699 12523920.170 -11144716.335 10 0 60240 58500.00000 0 -18110774.462 11443539.572 -13833037.400 10 0 60240 59400.00000 0 -16889959.071 10036468.809 -16252432.838 10 0 60240 60300.00000 0 -15618652.037 8313358.091 -18355766.938 10 0 60240 61200.00000 0 -14356056.144 6297552.214 -20102030.316 10 0 60240 62100.00000 0 -13157407.541 4024384.039 -21457147.418 10 0 60240 63000.00000 0 -12071639.316 1539964.787 -22394649.247 10 0 60240 63900.00000 0 -11139328.498 -1100479.942 -22896197.648 10 0 60240 64800.00000 0 -10391013.417 -3834660.230 -22951950.422 10 0 60240 65700.00000 0 -9845952.694 -6595573.414 -22560759.691 10 0 60240 66600.00000 0 -9511378.416 -9314059.652 -21730199.192 10 0 60240 67500.00000 0 -9382275.088 -11921455.203 -20476419.607 10 0 60240 68400.00000 0 -9441693.522 -14352232.833 -18823834.437 10 0 60240 69300.00000 0 -9661586.081 -16546519.044 -16804642.375 10 0 60240 70200.00000 0 -10004127.382 -18452382.945 -14458195.492 10 0 60240 71100.00000 0 -10423463.799 -20027801.079 -11830225.718 10 0 60240 72000.00000 0 -10867816.726 -21242216.191 -8971945.175 10 0 60240 72900.00000 0 -11281849.413 -22077625.157 -5939038.548 10 0 60240 73800.00000 0 -11609195.904 -22529151.310 -2790568.009 10 0 60240 74700.00000 0 -11795043.774 -22605078.380 412186.906 10 0 60240 75600.00000 0 -11788660.181 -22326346.158 3606930.798 10 0 60240 76500.00000 0 -11545753.428 -21725530.927 6731570.860 10 0 60240 77400.00000 0 -11030569.479 -20845355.387 9725427.670 10 0 60240 78300.00000 0 -10217634.503 -19736792.628 12530414.233 10 0 60240 79200.00000 0 -9093069.802 -18456845.427 15092160.141 10 0 60240 80100.00000 0 -7655423.810 -17066095.450 17361059.205 10 0 60240 81000.00000 0 -5915986.363 -15626125.963 19293220.891 10 0 60240 81900.00000 0 -3898572.175 -14196926.347 20851308.101 10 0 60240 82800.00000 0 -1638782.579 -12834386.764 22005246.350 10 0 60240 83700.00000 0 817223.910 -11587986.999 22732792.021 10 0 60240 84600.00000 0 3414401.567 -10498774.825 23019950.149 10 0 60240 85500.00000 0 6090859.423 -9597716.924 22861234.917 10 0 60241 0.00000 0 8780191.417 -8904489.725 22259768.900 10 0 60241 900.00000 0 11414001.024 -8426758.911 21227219.345 10 0 60241 1800.00000 0 13924513.730 -8159977.373 19783573.809 10 0 60241 2700.00000 0 16247175.526 -8087708.002 17956758.143 10 0 60241 3600.00000 0 18323127.655 -8182458.338 15782104.243 10 0 60241 4500.00000 0 20101457.709 -8406991.663 13301676.659 10 0 60241 5400.00000 0 21541134.312 -8716059.845 10563469.936 10 0 60241 6300.00000 0 22612545.681 -9058485.661 7620490.982 10 0 60241 7200.00000 0 23298578.215 -9379507.511 4529743.092 10 0 60241 8100.00000 0 23595190.068 -9623288.256 1351130.277 10 0 60241 9000.00000 0 23511455.332 -9735482.533 -1853697.637 10 0 60241 9900.00000 0 23069076.485 -9665754.094 -5022537.159 10 0 60241 10800.00000 0 22301385.067 -9370136.434 -8093837.552 10 0 60241 11700.00000 0 21251871.779 -8813135.977 -11007898.009 10 0 60241 12600.00000 0 19972307.286 -7969487.650 -13708031.947 10 0 60241 13500.00000 0 18520532.296 -6825487.007 -16141675.279 10 0 60241 14400.00000 0 16958009.617 -5379840.662 -18261416.542 10 0 60241 15300.00000 0 15347241.108 -3643997.014 -20025928.171 10 0 60241 16200.00000 0 13749158.276 -1641941.125 -21400780.156 10 0 60241 17100.00000 0 12220596.461 590539.830 -22359119.670 10 0 60241 18000.00000 0 10811959.125 3007091.695 -22882202.838 10 0 60241 18900.00000 0 9565170.725 5552478.977 -22959767.793 10 0 60241 19800.00000 0 8512004.482 8164651.850 -22590241.269 10 0 60241 20700.00000 0 7672855.484 10777109.000 -21780774.273 10 0 60241 21600.00000 0 7056010.652 13321458.181 -20547105.742 10 0 60241 22500.00000 0 6657446.018 15730067.763 -18913256.559 10 0 60241 23400.00000 0 6461159.307 17938698.425 -16911059.696 10 0 60241 24300.00000 0 6440022.978 19889004.845 -14579535.637 10 0 60241 25200.00000 0 6557120.673 21530802.559 -11964125.416 10 0 60241 26100.00000 0 6767509.324 22824004.960 -9115796.691 10 0 60241 27000.00000 0 7020330.972 23740149.436 -6090040.904 10 0 60241 27900.00000 0 7261183.427 24263449.060 -2945781.970 10 0 60241 28800.00000 0 7434647.903 24391326.492 255781.214 10 0 60241 29700.00000 0 7486865.214 24134408.817 3452374.787 10 0 60241 30600.00000 0 7368050.293 23515985.016 6581868.100 10 0 60241 31500.00000 0 7034837.710 22570950.499 9583485.415 10 0 60241 32400.00000 0 6452358.438 21344284.785 12398987.008 10 0 60241 33300.00000 0 5595959.871 19889127.815 14973796.491 10 0 60241 34200.00000 0 4452496.495 18264536.993 17258052.632 10 0 60241 35100.00000 0 3021137.043 16533019.853 19207565.888 10 0 60241 36000.00000 0 1313654.313 14757946.092 20784662.090 10 0 60241 36900.00000 0 -645814.398 13000947.054 21958898.187 10 0 60241 37800.00000 0 -2821526.394 11319410.620 22707637.625 10 0 60241 38700.00000 0 -5167380.976 9764174.908 23016475.645 10 0 60241 39600.00000 0 -7628603.928 8377515.477 22879507.575 10 0 60241 40500.00000 0 -10143800.120 7191508.300 22299435.928 10 0 60241 41400.00000 0 -12647290.367 6226835.023 21287514.877 10 0 60241 42300.00000 0 -15071637.056 5492078.847 19863333.377 10 0 60241 43200.00000 0 -17350255.376 4983539.101 18054440.884 10 0 60241 44100.00000 0 -19420003.351 4685571.377 15895822.255 10 0 60241 45000.00000 0 -21223644.392 4571438.478 13429231.007 10 0 60241 45900.00000 0 -22712081.157 4604636.353 10702392.694 10 0 60241 46800.00000 0 -23846268.448 4740639.545 7768092.558 10 0 60241 47700.00000 0 -24598725.619 4928993.062 4683163.931 10 0 60241 48600.00000 0 -24954585.381 5115662.977 1507396.000 10 0 60241 49500.00000 0 -24912134.576 5245546.851 -1697618.723 10 0 60241 50400.00000 0 -24482823.712 5265038.035 -4869675.291 10 0 60241 51300.00000 0 -23690743.977 5124535.217 -7947162.640 10 0 60241 52200.00000 0 -22571592.863 4780790.481 -10870261.808 10 0 60241 53100.00000 0 -21171170.935 4198995.540 -13582112.395 10 0 60241 54000.00000 0 -19543472.159 3354516.489 -16029924.118 10 0 60241 54900.00000 0 -17748447.462 2234202.016 -18166011.248 10 0 60241 55800.00000 0 -15849535.176 837207.879 -19948729.141 10 0 60241 56700.00000 0 -13911061.857 -824699.268 -21343294.020 10 0 60241 57600.00000 0 -11995622.636 -2727373.684 -22322469.472 10 0 60241 58500.00000 0 -10161551.139 -4835050.280 -22867105.708 10 0 60241 59400.00000 0 -8460585.296 -7101602.270 -22966520.568 10 0 60241 60300.00000 0 -6935827.088 -9472245.583 -22618714.397 10 0 60241 61200.00000 0 -5620081.887 -11885619.785 -21830414.121 10 0 60241 62100.00000 0 -4534646.945 -14276159.234 -20616945.310 10 0 60241 63000.00000 0 -3688599.575 -16576655.625 -19001934.377 10 0 60241 63900.00000 0 -3078614.296 -18720904.786 -17016846.556 10 0 60241 64800.00000 0 -2689315.758 -20646326.734 -14700368.621 10 0 60241 65700.00000 0 -2494151.350 -22296448.995 -12097648.541 10 0 60241 66600.00000 0 -2456745.260 -23623148.770 -9259407.335 10 0 60241 67500.00000 0 -2532675.166 -24588559.735 -6240941.075 10 0 60241 68400.00000 0 -2671594.698 -25166563.516 -3101033.339 10 0 60241 69300.00000 0 -2819610.144 -25343803.527 99199.620 10 0 60241 70200.00000 0 -2921809.116 -25120179.326 3297507.441 10 0 60241 71100.00000 0 -2924832.721 -24508801.749 6431723.561 10 0 60241 72000.00000 0 -2779381.154 -23535412.041 9440977.836 10 0 60241 72900.00000 0 -2442545.957 -22237290.829 12266879.702 10 0 60241 73800.00000 0 -1879869.874 -20661704.215 14854648.645 10 0 60241 74700.00000 0 -1067047.231 -18863953.433 17154170.161 10 0 60241 75600.00000 0 8806.737 -16905110.749 19120957.328 10 0 60241 76500.00000 0 1348370.806 -14849536.822 20717000.342 10 0 60241 77400.00000 0 2939849.728 -12762283.279 21911488.776 10 0 60241 78300.00000 0 4759234.389 -10706488.323 22681394.027 10 0 60241 79200.00000 0 6771079.598 -8740872.877 23011902.119 10 0 60241 80100.00000 0 8929767.492 -6917440.114 22896689.776 10 0 60241 81000.00000 0 11181204.879 -5279472.391 22338039.458 10 0 60241 81900.00000 0 13464885.051 -3859907.125 21346791.791 10 0 60241 82800.00000 0 15716229.765 -2680157.457 19942136.519 10 0 60241 83700.00000 0 17869115.596 -1749425.257 18151245.795 10 0 60241 84600.00000 0 19858481.195 -1064533.836 16008756.260 10 0 60241 85500.00000 0 21622908.392 -610286.447 13556108.969 10 0 60242 0.00000 0 23107070.732 -360335.078 10840759.041 10 0 60242 900.00000 0 24263948.865 -278522.791 7915267.555 10 0 60242 1800.00000 0 25056718.962 -320643.625 4836295.835 10 0 60242 2700.00000 0 25460237.667 -436545.796 1663515.707 10 0 60242 3600.00000 0 25462058.861 -572490.090 -1541540.390 10 0 60242 4500.00000 0 25062939.911 -673663.900 -4716668.955 10 0 60242 5400.00000 0 24276814.929 -686744.572 -7800201.531 10 0 60242 6300.00000 0 23130235.067 -562403.275 -10732203.872 10 0 60242 7200.00000 0 21661298.164 -257642.726 -13455644.486 10 0 60242 8100.00000 0 19918111.643 262131.278 -15917509.403 10 0 60242 9000.00000 0 17956852.248 1021393.543 -18069840.865 10 0 60242 9900.00000 0 15839503.400 2033212.663 -19870679.108 10 0 60242 10800.00000 0 13631364.572 3298449.937 -21284888.255 10 0 60242 11700.00000 0 11398436.847 4805479.859 -22284849.679 10 0 60242 12600.00000 0 9204794.112 6530445.922 -22851008.723 10 0 60242 13500.00000 0 7110050.006 8438042.890 -22972263.650 10 0 60242 14400.00000 0 5167026.707 10482794.309 -22646188.749 10 0 60242 15300.00000 0 3419723.210 12610772.956 -21879086.803 10 0 60242 16200.00000 0 1901668.039 14761693.017 -20685869.512 10 0 60242 17100.00000 0 634725.076 16871286.846 -19089767.891 10 0 60242 18000.00000 0 -371597.965 18873866.828 -17121878.067 10 0 60242 18900.00000 0 -1120310.315 20704964.808 -14820551.316 10 0 60242 19800.00000 0 -1626562.605 22303938.025 -12230640.361 10 0 60242 20700.00000 0 -1916752.336 23616431.710 -9402617.048 10 0 60242 21600.00000 0 -2027149.799 24596594.513 -6391579.240 10 0 60242 22500.00000 0 -2002104.369 25208953.407 -3256167.107 10 0 60242 23400.00000 0 -1891908.931 25429869.203 -57411.013 10 0 60242 24300.00000 0 -1750414.645 25248511.792 3142465.500 10 0 60242 25200.00000 0 -1632498.695 24667314.726 6281263.260 10 0 60242 26100.00000 0 -1591493.599 23701890.987 9298020.922 10 0 60242 27000.00000 0 -1676687.883 22380414.592 12134200.103 10 0 60242 27900.00000 0 -1931004.444 20742495.265 14734818.945 10 0 60242 28800.00000 0 -2388954.919 18837594.502 17049512.149 10 0 60242 29700.00000 0 -3074956.283 16723050.286 19033497.575 10 0 60242 30600.00000 0 -4002080.323 14461793.616 20648431.573 10 0 60242 31500.00000 0 -5171288.196 12119852.288 21863137.741 10 0 60242 32400.00000 0 -6571181.944 9763745.589 22654196.415 10 0 60242 33300.00000 0 -8178283.313 7457877.436 23006384.929 10 0 60242 34200.00000 0 -9957828.438 5262035.060 22912961.444 10 0 60242 35100.00000 0 -11865045.815 3229095.527 22375787.889 10 0 60242 36000.00000 0 -13846865.199 1403033.484 21405290.318 10 0 60242 36900.00000 0 -15843987.464 -182688.914 20020257.694 10 0 60242 37800.00000 0 -17793230.609 -1506284.728 18247482.774 10 0 60242 38700.00000 0 -19630055.749 -2558310.768 16121251.409 10 0 60242 39600.00000 0 -21291169.192 -3341815.229 13682689.212 10 0 60242 40500.00000 0 -22717093.339 -3871959.108 10978977.061 10 0 60242 41400.00000 0 -23854600.016 -4175127.761 8062449.370 10 0 60242 42300.00000 0 -24658905.004 -4287569.982 4989591.418 10 0 60242 43200.00000 0 -25095531.929 -4253621.767 1819954.084 10 0 60242 44100.00000 0 -25141767.145 -4123589.396 -1384993.727 10 0 60242 45000.00000 0 -24787643.550 -3951380.962 -4563053.252 10 0 60242 45900.00000 0 -24036411.108 -3791986.415 -7652501.736 10 0 60242 46800.00000 0 -22904473.065 -3698912.797 -10593292.494 10 0 60242 47700.00000 0 -21420788.977 -3721683.687 -13328225.503 10 0 60242 48600.00000 0 -19625768.280 -3903509.443 -15804065.319 10 0 60242 49500.00000 0 -17569699.577 -4279227.952 -17972583.979 10 0 60242 50400.00000 0 -15310780.469 -4873604.343 -19791507.942 10 0 60242 51300.00000 0 -12912829.682 -5700063.150 -21225350.034 10 0 60242 52200.00000 0 -10442776.721 -6759908.217 -22246109.615 10 0 60242 53100.00000 0 -7968033.758 -8042065.032 -22833826.770 10 0 60242 54000.00000 0 -5553859.499 -9523358.137 -22976979.196 10 0 60242 54900.00000 0 -3260825.125 -11169313.510 -22672713.614 10 0 60242 55800.00000 0 -1142488.246 -12935453.530 -21926906.692 10 0 60242 56700.00000 0 756628.046 -14769031.115 -20754053.946 10 0 60242 57600.00000 0 2402666.721 -16611130.850 -19176988.397 10 0 60242 58500.00000 0 3773611.140 -18399049.083 -17226434.305 10 0 60242 59400.00000 0 4859953.726 -20068852.948 -14940404.591 10 0 60242 60300.00000 0 5664832.035 -21558010.416 -12363453.851 10 0 60242 61200.00000 0 6203627.922 -22807980.250 -9545801.921 10 0 60242 62100.00000 0 6503048.397 -23766652.346 -6542345.700 10 0 60242 63000.00000 0 6599728.873 -24390535.234 -3411579.328 10 0 60242 63900.00000 0 6538419.821 -24646598.310 -214444.820 10 0 60242 64800.00000 0 6369835.500 -24513691.159 2986863.377 10 0 60242 65700.00000 0 6148257.661 -23983480.474 6130115.565 10 0 60242 66600.00000 0 5928997.231 -23060865.689 9154261.078 10 0 60242 67500.00000 0 5765822.637 -21763856.652 12000615.389 10 0 60242 68400.00000 0 5708464.346 -20122919.431 14613996.740 10 0 60242 69300.00000 0 5800301.466 -18179818.659 16943790.264 10 0 60242 70200.00000 0 6076328.030 -15986005.721 18944919.558 10 0 60242 71100.00000 0 6561484.369 -13600620.720 20578707.823 10 0 60242 72000.00000 0 7269423.289 -11088191.772 21813613.087 10 0 60242 72900.00000 0 8201762.355 -8516127.178 22625824.739 10 0 60242 73800.00000 0 9347853.263 -5952104.002 22999711.256 10 0 60242 74700.00000 0 10685077.796 -3461460.355 22928111.800 10 0 60242 75600.00000 0 12179658.162 -1104698.030 22412467.094 10 0 60242 76500.00000 0 13787948.450 1064802.707 21462787.742 10 0 60242 77400.00000 0 15458154.178 3002763.232 20097460.865 10 0 60242 78300.00000 0 17132409.364 4675601.249 18342898.596 10 0 60242 79200.00000 0 18749125.818 6061575.453 16233034.625 10 0 60242 80100.00000 0 20245517.915 7151433.914 13808677.589 10 0 60242 81000.00000 0 21560198.601 7948540.168 11116732.684 10 0 60242 81900.00000 0 22635739.146 8468472.512 8209305.274 10 0 60242 82800.00000 0 23421086.069 8738113.588 5142702.735 10 0 60242 83700.00000 0 23873734.126 8794268.558 1976352.753 10 0 60242 84600.00000 0 23961563.890 8681869.905 -1228341.732 10 0 60242 85500.00000 0 23664265.962 8451844.336 -4409189.241 99